ZS1DFR-1 Weather Reports


Display with metric or nautical units.
time (UTC)temp
F
wind
direction
speed
MPH
gust
MPH
rain 1hr
in
rain 24hr
in
rain mn
in
humidity
%
barometer
mb
20260505040833 51 0 0.0 0.0 0.00 0.00 0.00 99 1012.5
20260505035333 51 0 0.0 0.0 0.00 0.00 0.00 98 1012.1
20260505033833 51 0 0.0 0.0 0.00 0.00 0.00 98 1012.1
20260505032333 51 0 0.0 0.0 0.00 0.00 0.00 98 1012.2
20260505030833 51 0 0.0 0.0 0.00 0.00 0.00 98 1012.2
20260505025333 52 0 0.0 0.0 0.00 0.00 0.00 98 1012.1
20260505023833 52 0 0.0 0.0 0.00 0.00 0.00 98 1012.1
20260505022332 52 0 0.0 0.0 0.00 0.00 0.00 98 1011.9
20260505020832 52 0 0.0 0.0 0.00 0.00 0.00 98 1011.9
20260505015332 52 0 0.0 0.0 0.00 0.00 0.00 98 1012.1
20260505013833 52 0 0.0 0.0 0.00 0.00 0.00 98 1012.1
20260505012332 52 0 0.0 0.0 0.00 0.00 0.00 98 1012.4
20260505010832 52 0 0.0 0.0 0.00 0.00 0.00 98 1012.4
20260505005332 52 0 0.0 0.0 0.00 0.00 0.00 98 1012.6
20260505003832 52 0 0.0 0.0 0.00 0.00 0.00 98 1012.6
20260505002332 53 0 0.0 0.0 0.00 0.00 0.00 98 1012.7
20260505000832 53 0 0.0 0.0 0.00 0.00 0.00 98 1012.7
20260504235332 53 0 0.0 0.0 0.00 0.00 0.00 97 1012.6
20260504233832 53 0 0.0 0.0 0.00 0.00 0.00 97 1012.6
20260504232332 54 0 0.0 0.0 0.00 0.00 0.00 97 1012.6
20260504230832 54 0 0.0 0.0 0.00 0.00 0.00 97 1012.6
20260504225332 54 315 0.0 2.0 0.03 0.00 0.00 96 1012.9
20260504223832 54 315 0.0 2.0 0.03 0.00 0.00 96 1012.9
20260504222332 57 0 0.0 0.0 0.00 0.00 0.00 83 1013.1
20260504220832 57 0 0.0 0.0 0.00 0.00 0.00 83 1013.1
20260504215332 57 23 0.0 1.0 0.00 0.00 0.00 83 1013.1
20260504213832 57 23 0.0 1.0 0.00 0.00 0.00 83 1013.1
20260504212332 57 0 0.0 0.0 0.00 0.00 0.00 84 1013.2
20260504210832 57 0 0.0 0.0 0.00 0.00 0.00 84 1013.2
20260504205332 58 0 0.0 0.0 0.00 0.00 0.00 86 1013.1
20260504203832 58 0 0.0 0.0 0.00 0.00 0.00 86 1013.1
20260504202332 58 0 0.0 0.0 0.00 0.00 0.00 84 1012.8
20260504200832 58 0 0.0 0.0 0.00 0.00 0.00 84 1012.8
20260504195332 58 23 0.0 1.0 0.00 0.00 0.00 84 1012.9
20260504193832 58 23 0.0 1.0 0.00 0.00 0.00 84 1012.9
20260504192332 58 0 0.0 0.0 0.00 0.00 0.00 83 1012.9
20260504190832 58 0 0.0 0.0 0.00 0.00 0.00 83 1012.9
20260504185332 58 0 0.0 0.0 0.00 0.00 0.00 85 1012.8
20260504183832 58 0 0.0 0.0 0.00 0.00 0.00 85 1012.8
20260504182332 59 0 0.0 0.0 0.00 0.00 0.00 84 1012.7
20260504180832 59 0 0.0 0.0 0.00 0.00 0.00 84 1012.7
20260504175332 59 0 0.0 0.0 0.00 0.00 0.00 85 1012.4
20260504173832 59 0 0.0 0.0 0.00 0.00 0.00 85 1012.4
20260504172332 60 0 0.0 0.0 0.00 0.00 0.00 82 1012.4
20260504170832 60 0 0.0 0.0 0.00 0.00 0.00 82 1012.4
20260504150832 65 270 0.0 7.0 0.00 0.00 0.00 70 1011.8
20260504140832 66 270 0.0 4.0 0.00 0.00 0.00 67 1011.3
20260504080831 58 0 0.0 1.0 0.00 0.00 0.00 99 1012.2
20260504045331 60 0 0.0 0.0 0.02 0.00 0.00 99 1010.7